FW3914 Weather Reports


Display with metric or nautical units.
time (UTC)temp
F
wind
direction
speed
MPH
gust
MPH
rain 1hr
in
rain 24hr
in
rain mn
in
humidity
%
barometer
mb
20260504060247 66 180 0.0 6.0 0.00 0.00 0.00 61 1015.1
20260504050715 68 187 2.0 5.0 0.00 0.00 0.00 58 1015.7
20260504050212 68 249 0.0 5.0 0.00 0.00 0.00 57 1015.8
20260504045709 68 214 3.0 6.0 0.00 0.00 0.00 57 1015.9
20260504045204 68 202 2.0 6.0 0.00 0.00 0.00 56 1015.8
20260504044702 68 255 1.0 7.0 0.00 0.00 0.00 56 1016.0
20260504044159 68 193 2.0 5.0 0.00 0.00 0.00 56 1015.7
20260504043655 68 109 3.0 5.0 0.00 0.00 0.00 56 1016.0
20260504043152 68 196 3.0 5.0 0.00 0.00 0.00 56 1015.8
20260504042650 68 189 3.0 8.0 0.00 0.00 0.00 56 1015.9
20260504042146 68 166 4.0 6.0 0.00 0.00 0.00 56 1015.9
20260504041642 68 269 0.0 5.0 0.00 0.00 0.00 56 1015.9
20260504041138 68 252 2.0 5.0 0.00 0.00 0.00 56 1015.9
20260504040636 68 230 3.0 4.0 0.00 0.00 0.00 56 1016.1
20260504040133 69 234 2.0 5.0 0.00 0.00 0.00 55 1016.0
20260504035629 69 200 2.0 5.0 0.00 0.00 0.00 55 1016.0
20260504035126 69 218 1.0 4.0 0.00 0.00 0.00 55 1015.9
20260504034624 69 213 3.0 4.0 0.00 0.00 0.00 54 1015.8
20260504034120 69 255 0.0 3.0 0.00 0.00 0.00 54 1016.1
20260504033618 69 228 2.0 6.0 0.00 0.00 0.00 54 1015.9
20260504033115 69 187 2.0 5.0 0.00 0.00 0.00 54 1015.7
20260504032612 69 224 3.0 6.0 0.00 0.00 0.00 53 1015.8
20260504032109 69 203 1.0 4.0 0.00 0.00 0.00 53 1015.9
20260504031606 69 242 2.0 4.0 0.00 0.00 0.00 53 1015.9
20260504031102 70 250 2.0 5.0 0.00 0.00 0.00 52 1015.9
20260504030559 70 223 0.0 3.0 0.00 0.00 0.00 52 1015.7
20260504030056 70 228 2.0 5.0 0.00 0.00 0.00 52 1015.7
20260504025553 70 237 1.0 3.0 0.00 0.00 0.00 51 1015.7
20260504025050 71 242 3.0 5.0 0.00 0.00 0.00 51 1015.6
20260504024547 71 235 2.0 4.0 0.00 0.00 0.00 50 1015.8
20260504024044 71 225 2.0 5.0 0.00 0.00 0.00 50 1015.9
20260504023540 71 164 2.0 4.0 0.00 0.00 0.00 50 1015.9
20260504023036 71 226 2.0 5.0 0.00 0.00 0.00 49 1015.7
20260504022532 71 249 0.0 4.0 0.00 0.00 0.00 49 1015.7
20260504022029 72 206 2.0 5.0 0.00 0.00 0.00 49 1015.9
20260504021526 72 257 1.0 5.0 0.00 0.00 0.00 48 1015.9
20260504021023 72 196 4.0 7.0 0.00 0.00 0.00 48 1015.7
20260504020520 72 224 3.0 5.0 0.00 0.00 0.00 47 1015.8
20260504020017 72 201 4.0 7.0 0.00 0.00 0.00 47 1015.5
20260504015513 73 177 2.0 5.0 0.00 0.00 0.00 46 1015.6
20260504015009 73 143 2.0 5.0 0.00 0.00 0.00 46 1015.7
20260504014505 73 250 2.0 5.0 0.00 0.00 0.00 45 1015.6
20260504014003 73 228 3.0 7.0 0.00 0.00 0.00 45 1015.6
20260504013501 73 202 5.0 6.0 0.00 0.00 0.00 45 1015.8
20260504012956 74 250 3.0 5.0 0.00 0.00 0.00 44 1015.7
20260504012454 74 224 3.0 5.0 0.00 0.00 0.00 44 1015.5
20260504011952 74 238 2.0 5.0 0.00 0.00 0.00 43 1015.2
20260504011448 74 214 3.0 6.0 0.00 0.00 0.00 43 1015.2
20260504010944 75 230 1.0 4.0 0.00 0.00 0.00 42 1015.2
20260504010440 75 281 0.0 7.0 0.00 0.00 0.00 42 1015.1
20260504005936 75 262 0.0 4.0 0.00 0.00 0.00 41 1015.1
20260504005433 75 219 4.0 7.0 0.00 0.00 0.00 41 1015.1
20260504004931 76 263 1.0 9.0 0.00 0.00 0.00 41 1015.2
20260504004428 76 243 3.0 5.0 0.00 0.00 0.00 40 1015.3
20260504003925 77 201 3.0 7.0 0.00 0.00 0.00 39 1015.3
20260504003421 77 206 0.0 8.0 0.00 0.00 0.00 39 1015.2
20260504002918 78 204 3.0 8.0 0.00 0.00 0.00 38 1015.2
20260504002415 79 201 4.0 11.0 0.00 0.00 0.00 38 1014.9
20260504001913 80 263 2.0 5.0 0.00 0.00 0.00 38 1015.3
20260504001410 80 250 1.0 5.0 0.00 0.00 0.00 36 1015.3
20260504000906 80 208 5.0 8.0 0.00 0.00 0.00 36 1015.5
20260504000404 80 234 2.0 9.0 0.00 0.00 0.00 36 1015.6
20260503235901 81 238 6.0 10.0 0.00 0.00 0.00 36 1015.3
20260503235359 81 224 3.0 8.0 0.00 0.00 0.00 36 1015.5
20260503234856 82 224 5.0 8.0 0.00 0.00 0.00 36 1015.3
20260503234354 82 223 6.0 10.0 0.00 0.00 0.00 34 1015.2
20260503233851 82 188 3.0 7.0 0.00 0.00 0.00 35 1015.7
20260503233347 82 179 5.0 7.0 0.00 0.00 0.00 34 1015.5
20260503232844 82 249 3.0 7.0 0.00 0.00 0.00 35 1015.7
20260503232341 83 195 3.0 12.0 0.00 0.00 0.00 34 1015.5
20260503231839 84 238 3.0 9.0 0.00 0.00 0.00 32 1015.6
20260503231336 84 216 3.0 11.0 0.00 0.00 0.00 32 1015.6
20260503230832 84 258 2.0 10.0 0.00 0.00 0.00 33 1016.0
20260503230329 84 209 5.0 10.0 0.00 0.00 0.00 31 1015.6
20260503225827 84 209 4.0 8.0 0.00 0.00 0.00 31 1015.9
20260503225322 84 200 7.0 11.0 0.00 0.00 0.00 30 1015.5
20260503224818 84 218 5.0 11.0 0.00 0.00 0.00 30 1016.0
20260503224316 83 257 3.0 10.0 0.00 0.00 0.00 30 1015.8
20260503223814 83 194 5.0 13.0 0.00 0.00 0.00 32 1015.7
20260503223311 84 212 3.0 9.0 0.00 0.00 0.00 32 1015.9
20260503222807 82 237 3.0 8.0 0.00 0.00 0.00 33 1016.1
20260503222306 84 249 2.0 12.0 0.00 0.00 0.00 33 1016.2
20260503221803 85 253 2.0 13.0 0.00 0.00 0.00 32 1016.0
20260503221301 85 221 4.0 9.0 0.00 0.00 0.00 32 1016.1
20260503220757 86 228 3.0 8.0 0.00 0.00 0.00 31 1016.4
20260503220254 85 186 4.0 7.0 0.00 0.00 0.00 32 1016.0
20260503215751 85 249 2.0 13.0 0.00 0.00 0.00 32 1016.2
20260503215248 85 201 5.0 8.0 0.00 0.00 0.00 31 1016.1
20260503214746 84 226 2.0 8.0 0.00 0.00 0.00 32 1016.2
20260503214242 85 269 3.0 9.0 0.00 0.00 0.00 30 1016.5
20260503213741 86 264 5.0 13.0 0.00 0.00 0.00 31 1016.5
20260503213238 86 202 2.0 10.0 0.00 0.00 0.00 31 1016.5
20260503212734 85 200 3.0 11.0 0.00 0.00 0.00 31 1016.5
20260503212232 86 234 4.0 11.0 0.00 0.00 0.00 31 1016.7
20260503211730 86 260 3.0 6.0 0.00 0.00 0.00 31 1016.5
20260503211225 85 202 4.0 9.0 0.00 0.00 0.00 30 1016.8
20260503210721 85 225 3.0 10.0 0.00 0.00 0.00 30 1016.8
20260503210219 85 226 1.0 7.0 0.00 0.00 0.00 31 1016.9
20260503205714 85 199 5.0 8.0 0.00 0.00 0.00 32 1016.9
20260503205210 85 194 2.0 12.0 0.00 0.00 0.00 32 1017.1
20260503204707 86 243 5.0 11.0 0.00 0.00 0.00 32 1017.2
20260503204205 85 230 3.0 11.0 0.00 0.00 0.00 30 1017.2
20260503203702 85 193 6.0 11.0 0.00 0.00 0.00 31 1017.5
20260503203159 85 228 5.0 11.0 0.00 0.00 0.00 31 1017.4
20260503202656 84 226 5.0 11.0 0.00 0.00 0.00 31 1017.7
20260503202154 86 279 3.0 6.0 0.00 0.00 0.00 32 1017.8
20260503201652 84 203 3.0 8.0 0.00 0.00 0.00 31 1017.9
20260503201149 85 236 3.0 7.0 0.00 0.00 0.00 33 1017.9
20260503200645 85 272 4.0 8.0 0.00 0.00 0.00 30 1018.0
20260503200141 84 254 3.0 10.0 0.00 0.00 0.00 32 1018.1
20260503195639 84 250 2.0 13.0 0.00 0.00 0.00 32 1018.4
20260503195136 85 189 1.0 10.0 0.00 0.00 0.00 33 1018.3
20260503194633 85 267 2.0 11.0 0.00 0.00 0.00 35 1018.3
20260503194128 84 221 5.0 12.0 0.00 0.00 0.00 32 1018.0
20260503193625 84 234 6.0 11.0 0.00 0.00 0.00 33 1018.1
20260503193120 85 221 2.0 5.0 0.00 0.00 0.00 35 1018.2
20260503192616 84 244 2.0 11.0 0.00 0.00 0.00 34 1018.6
20260503192112 84 192 5.0 14.0 0.00 0.00 0.00 32 1018.8
20260503191609 84 181 1.0 4.0 0.00 0.00 0.00 33 1018.6
20260503191106 83 284 3.0 11.0 0.00 0.00 0.00 35 1018.7
20260503190604 84 236 6.0 8.0 0.00 0.00 0.00 35 1018.8
20260503190101 84 231 3.0 10.0 0.00 0.00 0.00 36 1018.7
20260503185557 83 274 0.0 8.0 0.00 0.00 0.00 37 1018.7
20260503185056 84 230 3.0 7.0 0.00 0.00 0.00 36 1018.9
20260503184552 83 217 2.0 10.0 0.00 0.00 0.00 37 1018.9
20260503184049 83 266 2.0 9.0 0.00 0.00 0.00 35 1019.1
20260503183545 82 240 2.0 11.0 0.00 0.00 0.00 38 1019.1
20260503183043 82 183 4.0 9.0 0.00 0.00 0.00 37 1019.3
20260503182541 82 163 3.0 8.0 0.00 0.00 0.00 38 1019.3
20260503182039 82 259 4.0 11.0 0.00 0.00 0.00 38 1019.6
20260503181536 82 224 5.0 12.0 0.00 0.00 0.00 37 1019.4
20260503181032 82 269 5.0 8.0 0.00 0.00 0.00 37 1019.8
20260503180529 83 195 6.0 8.0 0.00 0.00 0.00 38 1019.6
20260503180027 81 215 3.0 13.0 0.00 0.00 0.00 39 1020.0
20260503175524 81 264 3.0 9.0 0.00 0.00 0.00 38 1020.1
20260503175021 81 200 5.0 11.0 0.00 0.00 0.00 39 1020.0
20260503174518 82 231 2.0 6.0 0.00 0.00 0.00 39 1020.2
20260503174014 80 220 5.0 13.0 0.00 0.00 0.00 39 1020.3
20260503173509 81 242 2.0 11.0 0.00 0.00 0.00 40 1020.5
20260503173006 81 237 2.0 10.0 0.00 0.00 0.00 39 1020.2
20260503172504 80 236 3.0 9.0 0.00 0.00 0.00 39 1020.2
20260503172001 81 220 1.0 9.0 0.00 0.00 0.00 40 1020.3
20260503171457 81 264 4.0 9.0 0.00 0.00 0.00 41 1020.4
20260503170954 80 203 6.0 9.0 0.00 0.00 0.00 40 1020.6
20260503170450 80 199 3.0 7.0 0.00 0.00 0.00 41 1020.5
20260503150843 75 190 4.0 9.0 0.00 0.00 0.00 48 1021.2
20260503150339 75 250 4.0 8.0 0.00 0.00 0.00 48 1021.0
20260503140303 70 259 3.0 6.0 0.00 0.00 0.00 56 1021.2
20260503131233 63 198 0.0 3.0 0.00 0.00 0.00 71 1020.9
20260503130731 63 178 3.0 3.0 0.00 0.00 0.00 70 1021.1
20260503130227 63 181 0.0 2.0 0.00 0.00 0.00 70 1020.9
20260503120153 55 173 0.0 2.0 0.00 0.00 0.00 80 1020.5
20260503110621 55 209 0.0 2.0 0.00 0.00 0.00 80 1019.9
20260503110118 55 167 0.0 3.0 0.00 0.00 0.00 80 1019.9
20260503090508 56 224 0.0 2.0 0.00 0.00 0.00 76 1019.9
20260503081434 58 209 0.0 2.0 0.00 0.00 0.00 69 1019.6
20260503080931 59 205 0.0 2.0 0.00 0.00 0.00 68 1019.9
20260503080428 59 191 0.0 2.0 0.00 0.00 0.00 67 1019.8
20260503072904 59 205 1.0 3.0 0.00 0.00 0.00 66 1019.8
20260503072401 59 227 2.0 3.0 0.00 0.00 0.00 66 1019.5
20260503071858 60 189 0.0 4.0 0.00 0.00 0.00 65 1020.2
20260503071355 59 197 2.0 4.0 0.00 0.00 0.00 67 1019.8
20260503070851 59 205 1.0 3.0 0.00 0.00 0.00 67 1020.0
20260503070349 59 174 1.0 2.0 0.00 0.00 0.00 67 1019.9